EHI
0 0 0 0 0 0 0 0 0 0 0 0 1 3 5 6 7 7 8 11 14 16 16 14 14 15 15 15 14 14 15 11 6 5 7 9 9 9 9 8 7 7 7 6
0 0 0 0 0 0 0 0 0 1 1 0 1 4 6 9 9 9 9 11 14 16 15 13 12 14 15 15 14 14 13 7 4 5 7 7 7 7 7 7 7 8 9 8
0 0 0 0 0 0 0 0 1 2 2 1 1 3 6 10 11 10 9 11 15 16 14 11 12 15 16 15 14 13 10 5 3 4 5 5 4 4 4 5 6 7 8 7
0 0 0 0 0 0 0 0 1 2 3 1 1 2 5 9 11 10 10 12 16 16 14 12 13 15 15 14 13 12 10 7 5 4 3 3 3 2 3 4 4 5 4 3
0 0 0 0 0 0 0 0 1 2 3 2 2 2 4 7 9 9 11 14 17 17 16 13 13 14 13 12 11 10 9 8 7 6 4 3 3 2 3 3 3 3 2 1
0 0 0 1 1 0 0 0 0 1 3 3 4 3 3 4 7 11 15 17 17 17 15 12 11 11 10 10 9 9 9 8 8 7 5 4 3 3 3 3 3 3 3 2
0 0 1 2 2 1 1 0 0 1 2 3 3 3 3 6 11 16 18 17 16 15 11 9 9 9 8 8 8 8 7 7 8 6 4 3 3 3 3 3 3 3 3 3
0 0 1 2 2 2 1 1 1 1 2 3 4 5 7 11 17 20 19 16 14 11 7 6 6 7 7 7 7 7 7 6 6 4 3 3 3 3 3 3 3 3 3 3
0 0 0 1 1 1 1 1 2 3 4 6 7 8 11 14 17 19 18 16 13 10 6 4 4 6 7 7 7 7 6 5 4 3 3 3 3 3 3 3 3 3 3 3
0 0 0 0 0 0 1 2 3 3 5 7 9 10 12 12 13 13 13 12 10 8 6 5 4 5 6 6 5 5 4 3 3 3 3 3 3 3 3 3 3 3 3 3
0 0 0 0 0 0 1 2 3 3 4 6 8 10 11 10 8 7 7 7 7 7 6 6 5 5 4 4 3 2 1 1 1 2 2 2 3 3 3 3 2 2 2 2
0 0 1 1 1 1 1 2 3 3 4 6 8 10 10 8 5 5 6 6 5 5 6 6 5 4 3 3 2 1 1 1 1 2 2 2 2 3 2 1 1 1 1 1
0 1 2 3 3 2 2 2 2 2 5 7 8 9 9 6 5 5 6 6 6 6 5 4 4 3 3 3 2 1 0 1 1 3 4 4 4 4 2 1 1 0 0 0
1 2 2 3 3 3 3 2 1 2 5 6 7 8 8 6 5 6 7 8 8 8 6 5 4 3 3 3 2 1 0 0 1 2 4 5 5 5 4 3 2 1 0 0
2 1 1 1 2 4 4 2 1 2 5 6 6 7 8 8 7 7 8 8 9 9 8 6 5 4 3 2 1 0 0 0 0 0 2 3 4 5 6 5 4 3 1 0
2 1 0 1 3 5 4 2 0 2 5 6 7 8 9 9 8 7 7 7 7 7 7 7 6 4 2 1 0 0 0 0 0 0 0 1 2 4 5 6 6 5 3 1
3 2 1 1 2 3 2 1 1 3 6 7 6 8 10 10 7 6 6 6 6 6 6 6 6 4 2 0 0 0 0 0 0 0 0 0 1 2 3 4 5 4 3 3
3 3 3 2 1 1 1 0 1 3 5 5 6 8 10 10 7 6 6 6 6 6 6 6 5 4 2 1 0 0 0 0 0 0 0 0 1 1 1 2 2 2 2 3
2 3 3 2 1 0 0 0 0 1 3 4 5 7 9 9 7 6 6 6 6 5 4 4 4 3 3 1 1 1 1 1 1 1 0 0 1 1 0 1 1 1 1 2
1 1 2 2 1 0 0 0 1 1 3 4 6 7 8 8 7 6 6 6 5 4 3 3 4 4 4 3 3 2 2 2 2 1 0 0 0 0 1 2 2 1 0 1
0 0 1 1 0 0 0 1 2 3 3 4 5 6 7 8 7 6 6 6 4 3 3 4 4 5 5 4 3 2 2 1 1 0 0 0 0 0 1 1 1 0 0 0
2 2 2 2 1 0 1 1 3 3 3 4 5 5 6 7 7 6 6 5 4 3 3 3 4 4 4 3 2 1 1 0 0 0 0 0 0 0 0 0 0 0 0 0
4 4 4 4 2 2 2 3 3 3 4 5 6 6 6 6 6 6 5 3 2 3 3 3 3 2 2 2 2 1 0 0 0 0 0 0 0 0 0 0 0 0 0 0
4 3 3 4 4 4 4 3 3 4 5 6 6 6 6 5 4 3 2 1 1 1 2 2 1 1 1 2 3 2 1 0 0 0 1 1 0 0 0 0 0 0 0 0
2 1 1 2 4 5 4 4 4 5 6 6 5 5 4 3 2 1 1 0 0 1 1 1 0 0 1 3 3 2 1 0 0 1 2 2 1 0 0 0 0 0 0 0
1 0 0 1 2 3 3 3 3 4 4 3 2 2 1 1 1 0 0 0 0 0 0 0 0 1 2 3 3 3 2 1 1 1 2 2 1 0 0 0 0 0 0 0
0 0 0 0 0 1 1 1 2 2 2 1 0 0 0 0 0 0 0 0 0 0 0 0 0 1 2 3 2 3 3 3 2 2 2 1 0 0 0 0 0 0 0 0
Wind_Speed
4 3 1 1 2 1 2 5 6 6 6 6 6 7 6 6 7 6 5 5 5 4 3 3 4 3 3 3 3 3 3 2 1 1 1 1 1 1 1 1 2 1 1 0
2 1 2 3 2 1 1 2 4 5 2 3 4 4 5 6 7 6 6 6 5 4 4 4 4 4 3 3 3 3 3 2 1 1 1 1 1 1 1 0 0 1 1 1
2 3 4 3 3 1 1 1 5 5 6 5 4 4 5 6 7 7 6 5 5 5 5 5 5 5 5 4 4 4 3 2 2 2 2 1 1 2 1 1 1 0 1 1
1 3 1 6 2 3 4 2 2 3 6 7 6 4 3 4 5 4 4 5 5 5 4 3 4 4 4 4 4 3 3 2 2 2 1 1 1 1 1 0 0 0 1 1
3 2 3 4 2 1 3 2 1 4 5 5 4 5 3 1 2 3 4 4 4 5 5 4 4 4 5 4 3 3 3 2 2 2 2 1 1 1 1 1 1 1 1 1
3 3 4 5 3 0 6 1 2 3 5 4 5 3 3 1 1 2 2 3 3 4 4 4 4 4 5 4 3 3 3 2 2 2 2 1 2 1 1 1 1 1 1 1
3 3 4 4 4 3 3 5 3 3 4 4 4 5 4 2 2 3 3 3 4 4 3 3 3 4 4 4 3 3 2 2 1 1 2 2 1 1 1 0 0 1 1 1
3 3 5 4 2 3 5 4 2 2 4 4 4 4 4 3 3 4 4 3 4 4 2 1 2 4 3 3 3 2 2 1 1 0 1 0 0 1 1 0 0 1 1 2
5 5 4 1 2 2 3 3 2 3 3 4 4 4 4 3 3 4 4 4 3 4 2 1 1 3 3 2 2 3 2 1 0 0 0 0 0 0 1 0 0 1 0 1
2 1 0 1 2 1 2 2 1 2 4 5 5 5 5 4 3 3 3 3 3 4 3 1 1 2 2 2 2 3 2 1 1 0 0 1 1 0 1 0 0 1 0 1
1 1 2 3 2 1 2 3 4 4 4 5 6 6 5 4 3 2 2 2 3 3 3 2 1 2 1 2 2 2 1 1 0 0 0 1 1 1 1 2 2 3 2 2
4 5 2 3 3 1 3 3 3 4 4 4 6 6 5 4 3 3 3 2 3 2 2 2 2 1 0 0 2 2 1 1 1 1 1 1 1 2 3 1 0 2 3 3
3 2 2 2 1 2 3 2 3 4 4 4 5 6 5 4 3 2 2 2 2 2 2 2 2 1 1 1 1 2 1 1 1 1 1 1 1 1 1 3 3 2 1 2
0 2 2 2 1 2 2 2 3 4 4 5 5 5 5 4 3 2 2 1 1 1 1 1 1 1 1 1 1 1 0 1 1 1 1 2 2 2 2 1 1 2 3 4
2 0 1 0 1 2 2 3 4 4 4 4 4 5 5 5 4 2 2 2 2 1 1 0 0 1 1 1 1 1 1 1 1 1 1 1 1 1 1 1 1 2 2 3
1 2 2 2 2 2 3 4 4 3 3 3 3 3 4 4 4 3 2 2 2 1 1 1 1 2 1 1 1 1 1 1 0 0 0 0 1 1 1 1 1 1 2 2
1 0 1 1 1 1 2 2 3 3 3 3 2 3 4 4 3 2 1 1 2 2 2 2 2 2 1 1 1 1 1 1 0 0 0 1 1 1 1 1 1 2 2 3
2 3 3 2 2 1 1 2 2 2 3 2 3 3 4 4 4 3 2 1 0 1 2 2 2 1 1 1 1 1 1 1 1 1 1 1 1 1 1 1 1 2 2 2
1 2 1 0 1 2 2 2 2 1 2 2 3 3 3 3 3 3 2 2 2 2 3 2 2 1 1 2 1 1 1 1 1 1 1 1 0 1 1 1 1 2 2 1
1 1 1 1 1 2 2 2 1 1 2 2 2 2 1 1 2 2 2 1 2 3 3 2 1 1 1 2 1 1 1 2 1 1 1 1 1 2 2 1 2 2 2 2
1 1 2 2 2 1 1 2 2 2 2 2 2 2 2 2 2 2 2 1 3 2 1 1 1 1 1 1 1 1 1 2 2 2 1 2 2 2 1 2 1 1 1 1
1 1 1 2 2 1 1 1 2 3 3 2 2 2 1 1 1 1 2 2 2 2 1 1 1 1 1 1 1 1 1 1 1 2 2 2 2 2 2 2 1 1 1 1
0 1 1 1 1 1 0 0 1 2 2 3 3 3 3 3 2 2 2 2 2 2 1 1 2 2 1 0 1 1 1 1 1 2 2 2 2 1 1 1 1 1 1 1
1 0 0 1 1 1 0 1 1 1 1 2 2 3 3 2 1 2 2 3 3 3 2 2 2 1 1 1 1 1 1 1 1 1 1 1 1 1 1 1 1 1 1 1
1 0 1 1 1 0 1 1 0 0 0 0 1 2 2 2 2 2 1 2 3 2 1 2 2 1 1 0 0 0 1 1 1 1 1 1 1 1 1 1 1 1 1 1
0 0 1 1 1 1 1 1 1 0 0 0 1 1 0 1 1 1 1 1 1 1 1 1 1 1 1 1 1 1 1 1 1 1 1 1 1 1 1 1 1 1 1 1
1 0 0 1 1 0 0 0 1 1 1 1 1 1 0 0 0 0 0 1 1 1 1 1 1 1 1 1 1 0 0 0 0 1 1 1 1 1 1 1 1 1 1 1
Wind_Direction
220 217 160 268 275 239 169 177 179 198 188 208 189 165 157 150 143 132 136 145 154 151 152 160 153 153 148 152 148 140 131 126 138 137 126 123 112 140 164 175 179 177 159 170
336 1 44 5 316 251 201 145 153 142 187 209 164 132 132 138 144 149 165 164 156 156 161 166 164 158 148 139 140 132 132 144 145 117 109 103 97 92 91 117 185 146 149 177
291 320 45 334 279 185 87 119 156 178 196 165 140 144 159 165 165 171 169 160 161 171 180 178 174 162 155 158 147 131 131 135 124 115 104 109 114 88 79 62 70 113 198 222
153 47 203 243 248 106 101 40 44 133 154 158 164 165 162 164 162 162 161 160 164 167 167 166 160 152 151 141 134 130 131 136 131 121 109 88 87 99 145 138 177 206 235 244
123 146 256 280 296 120 111 25 10 120 128 131 112 69 12 359 135 163 158 152 153 156 153 147 148 150 136 128 127 128 141 154 160 148 136 127 143 203 215 208 249 241 239 225
135 157 216 243 284 79 93 22 307 133 138 132 105 107 251 283 75 96 111 123 121 123 120 136 149 140 131 136 134 148 165 170 166 153 153 179 208 225 238 209 220 236 276 257
161 190 247 264 296 46 114 225 255 142 150 148 157 187 202 179 112 114 115 118 108 105 115 143 147 135 138 146 165 174 161 143 133 145 165 190 196 240 244 235 267 283 277 297
148 171 242 287 26 134 196 207 176 155 156 156 154 147 140 133 131 127 118 116 111 102 92 115 135 132 142 170 182 148 133 125 139 162 177 114 111 310 309 257 329 318 326 336
174 203 231 239 147 183 160 146 163 152 153 143 140 143 130 124 123 125 121 118 117 119 111 71 110 125 134 177 143 119 112 117 183 261 340 52 168 275 332 349 19 322 338 315
76 277 283 48 62 69 104 123 138 133 133 125 128 132 125 124 118 120 125 123 119 122 123 100 69 96 129 149 134 125 136 189 225 219 341 330 327 206 168 191 218 259 265 279
85 251 20 6 11 18 32 49 63 69 97 119 127 134 135 134 127 130 131 129 131 134 136 132 89 78 98 103 110 122 148 173 267 284 273 306 297 272 222 219 196 189 210 212
218 230 189 256 291 20 62 61 84 84 68 97 121 130 129 136 140 140 139 130 117 113 130 136 121 118 120 103 118 128 146 191 208 220 271 273 276 325 351 346 218 181 176 180
205 210 187 230 344 54 72 94 114 116 123 118 120 128 130 130 127 126 116 121 127 137 147 146 136 154 227 219 141 137 171 220 227 223 230 233 243 227 296 339 358 357 248 231
48 82 38 14 44 57 75 92 104 101 116 126 133 129 128 120 122 126 133 147 143 128 130 151 155 226 247 182 136 144 178 237 242 235 232 236 238 228 207 218 296 309 294 272
329 79 187 240 60 60 72 86 89 92 102 105 135 138 139 136 139 152 148 123 106 86 68 90 170 270 273 190 158 201 222 239 242 244 240 241 244 237 227 223 235 269 298 306
334 17 39 58 78 85 88 99 114 128 134 126 132 147 147 141 143 142 141 133 132 153 249 233 256 260 244 185 182 244 235 231 194 209 249 266 255 243 241 233 245 248 261 274
116 291 321 357 61 102 116 130 139 145 146 144 146 137 133 129 129 140 172 189 181 206 221 207 240 261 231 200 199 223 228 213 147 96 236 238 235 236 236 225 231 246 259 265
174 207 210 202 181 123 84 112 117 134 149 147 134 128 135 142 161 180 196 200 147 300 268 241 233 244 236 228 207 207 195 207 214 209 233 253 241 226 250 239 235 247 270 286
219 228 216 135 126 123 123 126 144 156 141 135 147 159 164 167 171 182 185 171 176 225 259 254 237 239 250 246 233 194 191 204 239 236 212 211 239 254 242 240 238 244 249 264
242 218 170 140 171 156 145 135 134 148 157 166 164 157 156 184 180 175 166 195 219 226 234 233 228 247 255 259 256 193 197 207 221 224 203 206 223 241 244 239 239 249 251 250
91 137 143 159 190 198 165 157 158 168 172 163 162 175 196 218 190 167 159 218 262 247 227 220 221 245 259 273 276 227 220 222 224 224 221 225 233 239 237 237 231 239 244 246
68 95 137 162 162 201 255 205 180 172 166 170 168 165 173 220 231 216 209 211 229 235 228 237 249 258 289 322 308 266 237 223 218 216 223 229 232 234 236 237 226 232 244 244
47 108 111 139 175 189 242 237 186 177 178 184 183 189 202 212 199 179 227 250 223 208 204 232 250 259 268 306 283 268 229 227 226 220 222 220 217 219 231 237 241 250 251 252
345 65 154 183 126 105 316 278 259 198 188 187 194 191 187 192 239 236 220 209 203 198 209 224 220 237 243 280 293 280 274 267 250 225 211 193 181 193 206 207 221 248 248 238
317 349 88 100 103 195 221 227 1 345 98 187 226 225 199 191 207 236 223 199 195 193 226 230 217 215 206 219 190 233 259 252 244 217 189 189 198 198 202 209 206 205 207 200
214 247 248 227 208 203 206 181 170 237 141 14 310 285 273 299 286 244 193 197 206 209 223 235 216 198 191 176 185 224 234 255 289 267 223 211 209 199 190 184 189 185 191 182
298 295 53 32 2 291 251 194 172 208 205 181 209 271 285 312 319 126 146 186 198 205 208 221 201 184 186 179 211 263 251 240 269 278 252 214 196 199 200 192 178 181 183 170